ENZ54M EGLC-EDDW

Flight info

Callsign ENZ54M
Flight time N/A
Altitude 31000
Route ODUKU M84 CLN P44 SOMVA DCT MAVAS DCT IPMOG DCT PIXUR PIXUR3P
Aircraft B462/M-SDFGIRWY/LB1

Departure

Time 2026-05-07 09:39
Airport London City Airport (EGLC)

Arrival

Time N/A
Airport Bremen Airport (EDDW)
Time Latitude Longitude Altitude Speed Heading
2026-05-07 09:05 51.50414 0.05125 18 ft 0 kts 323°
2026-05-07 09:34 51.50420 0.05122 27 ft 1 kts
2026-05-07 09:34 51.50438 0.05126 24 ft 4 kts 355°
2026-05-07 09:34 51.50462 0.05086 24 ft 0 kts 310°
2026-05-07 09:34 51.50469 0.05073 24 ft 0 kts 310°
2026-05-07 09:35 51.50470 0.05070 24 ft 2 kts 310°
2026-05-07 09:35 51.50499 0.05030 24 ft 9 kts 324°
2026-05-07 09:35 51.50536 0.04967 24 ft 7 kts 298°
2026-05-07 09:36 51.50542 0.04902 24 ft 6 kts 275°
2026-05-07 09:36 51.50543 0.04844 24 ft 5 kts 267°
2026-05-07 09:36 51.50541 0.04794 24 ft 4 kts 269°
2026-05-07 09:36 51.50541 0.04744 24 ft 6 kts 272°
2026-05-07 09:37 51.50545 0.04677 24 ft 6 kts 277°
2026-05-07 09:37 51.50550 0.04606 24 ft 7 kts 276°
2026-05-07 09:37 51.50552 0.04534 24 ft 6 kts 255°
2026-05-07 09:37 51.50546 0.04469 25 ft 6 kts 278°
2026-05-07 09:38 51.50556 0.04471 25 ft 2 kts 81°
2026-05-07 09:38 51.50556 0.04474 25 ft 0 kts 88°
2026-05-07 09:38 51.50557 0.04539 24 ft 28 kts 90°
2026-05-07 09:38 51.50533 0.05283 26 ft 103 kts 92°
2026-05-07 09:39 51.50504 0.06650 260 ft 134 kts 92°
2026-05-07 09:39 51.50479 0.08131 847 ft 133 kts 91°